User: anonymous   Login
Location: Lima
(44.6384°N, 112.5920°W)
Time: 16:39:22
(UTC+00:00)
Language:

CAS-4A - Orbit

View from above orbital plane
View from above orbital plane
View from above satellite
View from above satellite

Ground track
Ground track

The orbit data is extracted from the following two-line orbital elements,

1 42761U 17034D   24107.17454046  .00025354  00000-0  98039-3 0  9991
2 42761  43.0162 214.7806 0012697 302.5473  57.4151 15.25683865377936
Epoch (UTC): 16 April 2024 04:11:20
Eccentricity: 0.0012697
inclination: 43.0162°
perigee height: 480 km
apogee height: 497 km
right ascension of ascending node: 214.7806°
argument of perigee: 302.5473°
revolutions per day: 15.25683865
mean anomaly at epoch: 57.4151°
orbit number at epoch: 37793

The dashed part of the orbit path shows where the satellite is in the earth's shadow,  

DLR